ACA12 CYYZ-CYYC

Flight info

Callsign ACA12
Flight time N/A
Altitude 34000
Route AVSEP7 MUSIT DCT SSM DCT AGLIN DCT GABOV DCT KOBID DCT NILTT DCT GUDOG DCT PIKLA BIRKO6
Aircraft A321/M-SDE3FGHIRWY/LB1

Departure

Time 2026-05-04 22:17
Airport Toronto Pearson International Airport (CYYZ)

Arrival

Time N/A
Airport Calgary International Airport (CYYC)
Time Latitude Longitude Altitude Speed Heading
2026-05-04 22:00 43.68456 -79.62461 567 ft 0 kts 50°
2026-05-04 22:10 43.68454 -79.62465 571 ft 3 kts 50°
2026-05-04 22:10 43.68442 -79.62485 574 ft 3 kts 50°
2026-05-04 22:10 43.68430 -79.62505 575 ft 3 kts 30°
2026-05-04 22:10 43.68413 -79.62510 569 ft 0 kts 333°
2026-05-04 22:12 43.68442 -79.62540 570 ft 10 kts 319°
2026-05-04 22:12 43.68488 -79.62612 568 ft 11 kts 295°
2026-05-04 22:13 43.68474 -79.62722 568 ft 13 kts 274°
2026-05-04 22:13 43.68531 -79.62820 570 ft 14 kts 317°
2026-05-04 22:13 43.68606 -79.62916 563 ft 16 kts 316°
2026-05-04 22:13 43.68689 -79.63024 562 ft 16 kts 317°
2026-05-04 22:14 43.68770 -79.63130 569 ft 16 kts 316°
2026-05-04 22:14 43.68852 -79.63238 567 ft 16 kts 317°
2026-05-04 22:14 43.68933 -79.63343 574 ft 15 kts 317°
2026-05-04 22:14 43.69024 -79.63461 571 ft 21 kts 316°
2026-05-04 22:15 43.69115 -79.63521 570 ft 11 kts 25°
2026-05-04 22:15 43.69185 -79.63439 568 ft 15 kts 32°
2026-05-04 22:15 43.69300 -79.63419 563 ft 16 kts
2026-05-04 22:15 43.69364 -79.63437 563 ft 11 kts 327°
2026-05-04 22:16 43.69404 -79.63522 564 ft 9 kts 237°
2026-05-04 22:16 43.69333 -79.63621 567 ft 31 kts 227°
2026-05-04 22:16 43.69042 -79.64045 572 ft 89 kts 226°
2026-05-04 22:16 43.68501 -79.64828 576 ft 134 kts 226°
2026-05-04 22:17 43.67793 -79.65851 805 ft 153 kts 226°
2026-05-04 22:17 43.67086 -79.66931 1436 ft 151 kts 230°
2026-05-04 22:17 43.66771 -79.68318 1986 ft 160 kts 266°
2026-05-04 22:17 43.66935 -79.69882 2407 ft 171 kts 272°
2026-05-04 22:18 43.67175 -79.71548 2542 ft 187 kts 274°
2026-05-04 22:18 43.67429 -79.73363 2680 ft 198 kts 273°
2026-05-04 22:18 43.67661 -79.75320 2786 ft 216 kts 272°
2026-05-04 22:18 43.67899 -79.77476 2967 ft 237 kts 272°
2026-05-04 22:19 43.68153 -79.79758 3577 ft 242 kts 273°
2026-05-04 22:19 43.68415 -79.82067 4266 ft 245 kts 273°
2026-05-04 22:19 43.68679 -79.84398 4940 ft 246 kts 274°
2026-05-04 22:19 43.68945 -79.86748 5607 ft 248 kts 275°
2026-05-04 22:20 43.69213 -79.89112 6237 ft 250 kts 275°
2026-05-04 22:20 43.69531 -79.91488 6836 ft 255 kts 283°
2026-05-04 22:20 43.70334 -79.93702 7445 ft 264 kts 302°
2026-05-04 22:20 43.71688 -79.95438 8019 ft 277 kts 322°
2026-05-04 22:21 43.73415 -79.96692 8609 ft 282 kts 327°
2026-05-04 22:21 43.75169 -79.97924 9234 ft 284 kts 326°
2026-05-04 22:21 43.76932 -79.99171 9820 ft 286 kts 326°
2026-05-04 22:21 43.78716 -80.00443 10255 ft 294 kts 326°
2026-05-04 22:22 43.80591 -80.01793 10388 ft 313 kts 326°
2026-05-04 22:22 43.82579 -80.03225 10510 ft 331 kts 326°
2026-05-04 22:22 43.84643 -80.04709 10748 ft 344 kts 326°
2026-05-04 22:22 43.86779 -80.06240 11243 ft 348 kts 326°
2026-05-04 22:23 43.88942 -80.07782 11777 ft 352 kts 326°
2026-05-04 22:23 43.91125 -80.09338 12347 ft 354 kts 326°
2026-05-04 22:23 43.93164 -80.11199 12922 ft 348 kts 314°
2026-05-04 22:23 43.94855 -80.13561 13469 ft 344 kts 303°
2026-05-04 22:24 43.96294 -80.16208 13956 ft 345 kts 301°
2026-05-04 22:24 43.97734 -80.18872 14525 ft 345 kts 302°
2026-05-04 22:24 43.99159 -80.21506 15052 ft 346 kts 302°
2026-05-04 22:24 44.00608 -80.24188 15554 ft 348 kts 302°
2026-05-04 22:25 44.02064 -80.26883 16077 ft 350 kts 302°
2026-05-04 22:25 44.03527 -80.29592 16565 ft 352 kts 302°
2026-05-04 22:25 44.04997 -80.32318 17026 ft 354 kts 302°
2026-05-04 22:25 44.06480 -80.35066 17518 ft 356 kts 302°
2026-05-04 22:26 44.07968 -80.37828 17962 ft 358 kts 302°
2026-05-04 22:26 44.09465 -80.40609 18353 ft 360 kts 302°
2026-05-04 22:26 44.10950 -80.43368 18754 ft 362 kts 302°
2026-05-04 22:26 44.12458 -80.46175 19167 ft 363 kts 302°
2026-05-04 22:27 44.13997 -80.48968 19570 ft 366 kts 306°
2026-05-04 22:27 44.15741 -80.51578 19954 ft 369 kts 308°
2026-05-04 22:27 44.17503 -80.54188 20366 ft 371 kts 308°
2026-05-04 22:27 44.19271 -80.56819 20758 ft 372 kts 308°
2026-05-04 22:28 44.21042 -80.59458 21154 ft 374 kts 308°
2026-05-04 22:28 44.22819 -80.62109 21546 ft 375 kts 308°
2026-05-04 22:28 44.24601 -80.64769 21965 ft 376 kts 307°
2026-05-04 22:28 44.26371 -80.67406 22363 ft 378 kts 307°
2026-05-04 22:29 44.28166 -80.70087 22747 ft 379 kts 307°
2026-05-04 22:29 44.29968 -80.72782 23132 ft 381 kts 307°
2026-05-04 22:29 44.31775 -80.75490 23448 ft 382 kts 307°
2026-05-04 22:29 44.33591 -80.78216 23744 ft 383 kts 307°
2026-05-04 22:30 44.35410 -80.80947 24051 ft 385 kts 307°
2026-05-04 22:30 44.37239 -80.83687 24345 ft 386 kts 307°
2026-05-04 22:30 44.39076 -80.86437 24648 ft 388 kts 307°
2026-05-04 22:30 44.40893 -80.89167 24928 ft 389 kts 307°
2026-05-04 22:31 44.42735 -80.91947 25208 ft 391 kts 307°
2026-05-04 22:31 44.44584 -80.94743 25473 ft 392 kts 307°
2026-05-04 22:31 44.46442 -80.97551 25750 ft 394 kts 307°
2026-05-04 22:31 44.48309 -81.00376 26028 ft 395 kts 307°
2026-05-04 22:32 44.50180 -81.03206 26306 ft 397 kts 307°
2026-05-04 22:32 44.52058 -81.06050 26575 ft 398 kts 307°
2026-05-04 22:32 44.53946 -81.08912 26842 ft 400 kts 307°
2026-05-04 22:32 44.55834 -81.11771 27104 ft 401 kts 307°
2026-05-04 22:33 44.57731 -81.14646 27361 ft 403 kts 307°
2026-05-04 22:33 44.59613 -81.17499 27600 ft 404 kts 307°
2026-05-04 22:33 44.61520 -81.20400 27851 ft 405 kts 307°
2026-05-04 22:33 44.63435 -81.23318 28105 ft 407 kts 307°
2026-05-04 22:34 44.65355 -81.26245 28332 ft 408 kts 307°
2026-05-04 22:34 44.67279 -81.29181 28661 ft 409 kts 307°
2026-05-04 22:34 44.69200 -81.32115 29041 ft 407 kts 307°
2026-05-04 22:34 44.71108 -81.35032 29446 ft 404 kts 307°
2026-05-04 22:35 44.72980 -81.37897 29771 ft 403 kts 307°
2026-05-04 22:35 44.74871 -81.40793 30079 ft 401 kts 307°
2026-05-04 22:35 44.76752 -81.43679 30392 ft 399 kts 307°
2026-05-04 22:35 44.78624 -81.46557 30709 ft 398 kts 307°
2026-05-04 22:36 44.80488 -81.49424 31025 ft 396 kts 307°
2026-05-04 22:36 44.82342 -81.52276 31339 ft 394 kts 307°
2026-05-04 22:36 44.84190 -81.55120 31656 ft 392 kts 307°
2026-05-04 22:36 44.86028 -81.57950 31969 ft 391 kts 307°
2026-05-04 22:37 44.87857 -81.60773 32287 ft 389 kts 306°
2026-05-04 22:37 44.89649 -81.63543 32661 ft 386 kts 306°
2026-05-04 22:37 44.91452 -81.66333 33022 ft 384 kts 306°
2026-05-04 22:37 44.93243 -81.69107 33319 ft 382 kts 306°
2026-05-04 22:38 44.95029 -81.71877 33509 ft 381 kts 306°
2026-05-04 22:38 44.98572 -81.77388 33539 ft 378 kts 306°
2026-05-04 22:39 45.02075 -81.82842 33535 ft 377 kts 306°
2026-05-04 22:39 45.05606 -81.88331 33523 ft 377 kts 306°
2026-05-04 22:40 45.09131 -81.93836 33528 ft 377 kts 306°
2026-05-04 22:40 45.12652 -81.99339 33542 ft 377 kts 306°
2026-05-04 22:41 45.16146 -82.04810 33528 ft 377 kts 305°
2026-05-04 22:41 45.19654 -82.10320 33526 ft 376 kts 305°
2026-05-04 22:42 45.23169 -82.15841 33519 ft 377 kts 305°
2026-05-04 22:42 45.26672 -82.21369 33521 ft 377 kts 305°
2026-05-04 22:43 45.30177 -82.26908 33505 ft 377 kts 305°
2026-05-04 22:43 45.33659 -82.32419 33531 ft 377 kts 305°
2026-05-04 22:44 45.37162 -82.37977 33530 ft 377 kts 305°
2026-05-04 22:44 45.40631 -82.43570 33523 ft 376 kts 303°
2026-05-04 22:45 45.43878 -82.49369 33521 ft 374 kts 301°
2026-05-04 22:45 45.48615 -82.58138 33517 ft 374 kts 301°
2026-05-04 22:46 45.51815 -82.63990 33525 ft 374 kts 301°
2026-05-04 22:46 45.55028 -82.69837 33550 ft 375 kts 301°
2026-05-04 22:47 45.58214 -82.75645 33542 ft 374 kts 301°
2026-05-04 22:47 45.61413 -82.81485 33540 ft 373 kts 301°
2026-05-04 22:48 45.64599 -82.87323 33534 ft 372 kts 301°
2026-05-04 22:48 45.67778 -82.93154 33531 ft 372 kts 301°
2026-05-04 22:49 45.70949 -82.98988 33544 ft 371 kts 301°
2026-05-04 22:49 45.74087 -83.04780 33530 ft 370 kts 301°
2026-05-04 22:50 45.77236 -83.10603 33540 ft 370 kts 300°
2026-05-04 22:50 45.80380 -83.16423 33532 ft 369 kts 300°
2026-05-04 22:51 45.83514 -83.22235 33523 ft 368 kts 300°
2026-05-04 22:51 45.86622 -83.28010 33517 ft 368 kts 300°
2026-05-04 22:52 45.89744 -83.33822 33523 ft 367 kts 300°
2026-05-04 22:52 45.92863 -83.39635 33508 ft 367 kts 300°
2026-05-04 22:53 45.95974 -83.45449 33503 ft 367 kts 300°
2026-05-04 22:53 45.99082 -83.51278 33530 ft 367 kts 299°
2026-05-04 22:54 46.02154 -83.57062 33508 ft 367 kts 299°
2026-05-04 22:54 46.05248 -83.62894 33498 ft 367 kts 300°
2026-05-04 22:55 46.08347 -83.68727 33500 ft 367 kts 299°
2026-05-04 22:55 46.11438 -83.74572 33494 ft 367 kts 299°
2026-05-04 22:56 46.14510 -83.80377 33491 ft 367 kts 299°
2026-05-04 22:56 46.17595 -83.86235 33492 ft 367 kts 299°
2026-05-04 22:57 46.20675 -83.92105 33491 ft 367 kts 299°
2026-05-04 22:57 46.23770 -83.97999 33514 ft 369 kts 299°
2026-05-04 22:58 46.26849 -84.03868 33530 ft 369 kts 299°
2026-05-04 22:58 46.29944 -84.09784 33523 ft 369 kts 298°
2026-05-04 22:59 46.33032 -84.15706 33511 ft 369 kts 298°
2026-05-04 22:59 46.36109 -84.21639 33499 ft 368 kts 298°
2026-05-04 23:00 46.39161 -84.27534 33503 ft 369 kts 298°
2026-05-04 23:00 46.42061 -84.33597 33525 ft 362 kts 292°
2026-05-04 23:01 46.44565 -84.39932 33518 ft 363 kts 292°
2026-05-04 23:01 46.47060 -84.46293 33503 ft 363 kts 292°
2026-05-04 23:02 46.49540 -84.52627 33495 ft 364 kts 292°
2026-05-04 23:02 46.52040 -84.59006 33492 ft 364 kts 292°
2026-05-04 23:03 46.54536 -84.65402 33496 ft 364 kts 292°
2026-05-04 23:03 46.57026 -84.71800 33500 ft 364 kts 292°
2026-05-04 23:04 46.59499 -84.78164 33503 ft 364 kts 292°
2026-05-04 23:04 46.61988 -84.84580 33501 ft 365 kts 292°
2026-05-04 23:05 46.64482 -84.91014 33507 ft 365 kts 292°
2026-05-04 23:05 46.66971 -84.97457 33506 ft 365 kts 292°
2026-05-04 23:06 46.69436 -85.03870 33507 ft 365 kts 292°
2026-05-04 23:06 46.71911 -85.10329 33514 ft 365 kts 292°
2026-05-04 23:07 46.74394 -85.16791 33533 ft 365 kts 292°
2026-05-04 23:07 46.76868 -85.23249 33531 ft 365 kts 292°
2026-05-04 23:08 46.79312 -85.29670 33531 ft 364 kts 291°
2026-05-04 23:08 46.81768 -85.36129 33529 ft 364 kts 291°
2026-05-04 23:09 46.84226 -85.42586 33521 ft 364 kts 291°
2026-05-04 23:09 46.86682 -85.49051 33520 ft 364 kts 291°
2026-05-04 23:10 46.89110 -85.55481 33563 ft 365 kts 291°
2026-05-04 23:10 46.91564 -85.62018 33529 ft 368 kts 291°
2026-05-04 23:11 46.94026 -85.68580 33519 ft 368 kts 291°
2026-05-04 23:11 46.96495 -85.75153 33514 ft 368 kts 291°
2026-05-04 23:12 46.98946 -85.81689 33512 ft 369 kts 291°
2026-05-04 23:12 47.01408 -85.88271 33511 ft 368 kts 291°
2026-05-04 23:13 47.03861 -85.94855 33533 ft 368 kts 291°
2026-05-04 23:13 47.06303 -86.01435 33532 ft 367 kts 291°
2026-05-04 23:14 47.08732 -86.08003 33521 ft 366 kts 291°
2026-05-04 23:14 47.11145 -86.14524 33517 ft 366 kts 291°
2026-05-04 23:15 47.13578 -86.21129 33519 ft 370 kts 290°
2026-05-04 23:15 47.16036 -86.27805 33504 ft 372 kts 290°
2026-05-04 23:16 47.18492 -86.34505 33493 ft 373 kts 290°
2026-05-04 23:16 47.20940 -86.41197 33489 ft 375 kts 290°
2026-05-04 23:17 47.23411 -86.47953 33489 ft 375 kts 290°
2026-05-04 23:17 47.25883 -86.54731 33490 ft 376 kts 290°
2026-05-04 23:18 47.28345 -86.61519 33494 ft 376 kts 290°
2026-05-04 23:18 47.30791 -86.68273 33496 ft 376 kts 290°
2026-05-04 23:19 47.33251 -86.75074 33504 ft 376 kts 290°
2026-05-04 23:19 47.35709 -86.81899 33501 ft 378 kts 290°
2026-05-04 23:20 47.38173 -86.88767 33477 ft 380 kts 290°
2026-05-04 23:20 47.40654 -86.95681 33475 ft 382 kts 290°
2026-05-04 23:21 47.43119 -87.02573 33478 ft 383 kts 290°
2026-05-04 23:21 47.45603 -87.09545 33473 ft 383 kts 291°
2026-05-04 23:22 47.48089 -87.16529 33473 ft 385 kts 291°
2026-05-04 23:22 47.50582 -87.23555 33465 ft 386 kts 291°
2026-05-04 23:23 47.53076 -87.30604 33465 ft 387 kts 290°
2026-05-04 23:23 47.55555 -87.37625 33456 ft 388 kts 290°
2026-05-04 23:24 47.58052 -87.44704 33479 ft 389 kts 291°
2026-05-04 23:24 47.60560 -87.51831 33468 ft 391 kts 291°
2026-05-04 23:25 47.63066 -87.59004 33453 ft 393 kts 291°
2026-05-04 23:25 47.65556 -87.66165 33452 ft 394 kts 291°
2026-05-04 23:26 47.68074 -87.73392 33450 ft 395 kts 291°
2026-05-04 23:26 47.70591 -87.80628 33452 ft 395 kts 291°
2026-05-04 23:27 47.73101 -87.87881 33459 ft 395 kts 291°
2026-05-04 23:27 47.75592 -87.95103 33459 ft 396 kts 291°
2026-05-04 23:28 47.78098 -88.02390 33457 ft 396 kts 291°
2026-05-04 23:28 47.80614 -88.09711 33463 ft 398 kts 292°
2026-05-04 23:29 47.83135 -88.17073 33450 ft 400 kts 292°
2026-05-04 23:29 47.85639 -88.24431 33450 ft 402 kts 292°
2026-05-04 23:30 47.88158 -88.31860 33462 ft 402 kts 292°
2026-05-04 23:30 47.90695 -88.39306 33456 ft 403 kts 292°
2026-05-04 23:31 47.93227 -88.46763 33454 ft 403 kts 292°
2026-05-04 23:31 47.95751 -88.54246 33447 ft 404 kts 292°
2026-05-04 23:32 47.98252 -88.61680 33444 ft 404 kts 292°
2026-05-04 23:32 48.00767 -88.69185 33479 ft 404 kts 292°
2026-05-04 23:33 48.03280 -88.76706 33442 ft 405 kts 292°
2026-05-04 23:33 48.05801 -88.84260 33435 ft 406 kts 292°
2026-05-04 23:34 48.08304 -88.91776 33434 ft 407 kts 292°
2026-05-04 23:34 48.10827 -88.99367 33436 ft 407 kts 292°
2026-05-04 23:35 48.13334 -89.06970 33442 ft 408 kts 292°
2026-05-04 23:35 48.15842 -89.14589 33443 ft 408 kts 292°
2026-05-04 23:36 48.18330 -89.22156 33455 ft 408 kts 292°
2026-05-04 23:36 48.20833 -89.29794 33456 ft 408 kts 292°
2026-05-04 23:37 48.23328 -89.37440 33485 ft 409 kts 293°
2026-05-04 23:37 48.25812 -89.45123 33461 ft 409 kts 292°
2026-05-04 23:38 48.28121 -89.52863 33458 ft 409 kts 290°
2026-05-04 23:38 48.30358 -89.60733 33456 ft 410 kts 290°
2026-05-04 23:39 48.32598 -89.68607 33459 ft 410 kts 291°
2026-05-04 23:39 48.34871 -89.76468 33460 ft 410 kts 291°
2026-05-04 23:40 48.37145 -89.84341 33466 ft 410 kts 291°
2026-05-04 23:40 48.39390 -89.92172 33466 ft 410 kts 290°
2026-05-04 23:41 48.41649 -90.00055 33486 ft 410 kts 291°
2026-05-04 23:41 48.43897 -90.07940 33509 ft 410 kts 291°
2026-05-04 23:42 48.46141 -90.15836 33488 ft 410 kts 291°
2026-05-04 23:42 48.48362 -90.23697 33488 ft 411 kts 291°
2026-05-04 23:43 48.50591 -90.31621 33483 ft 411 kts 291°
2026-05-04 23:43 48.52825 -90.39550 33484 ft 411 kts 291°
2026-05-04 23:44 48.55053 -90.47500 33491 ft 411 kts 291°
2026-05-04 23:44 48.57263 -90.55407 33493 ft 412 kts 291°
2026-05-04 23:45 48.59483 -90.63377 33507 ft 412 kts 291°
2026-05-04 23:45 48.61705 -90.71355 33510 ft 412 kts 291°
2026-05-04 23:46 48.63916 -90.79353 33510 ft 412 kts 291°
2026-05-04 23:46 48.66120 -90.87355 33535 ft 413 kts 291°
2026-05-04 23:47 48.68309 -90.95330 33526 ft 413 kts 291°
2026-05-04 23:47 48.70515 -91.03379 33524 ft 414 kts 291°
2026-05-04 23:48 48.72706 -91.11444 33538 ft 414 kts 291°
2026-05-04 23:48 48.74901 -91.19515 33533 ft 414 kts 291°
2026-05-04 23:49 48.77081 -91.27523 33542 ft 414 kts 291°
2026-05-04 23:49 48.79273 -91.35600 33551 ft 414 kts 291°
2026-05-04 23:50 48.81446 -91.43684 33567 ft 413 kts 291°
2026-05-04 23:50 48.83611 -91.51755 33568 ft 413 kts 291°
2026-05-04 23:51 48.85766 -91.59837 33577 ft 413 kts 291°
2026-05-04 23:51 48.87898 -91.67856 33576 ft 412 kts 290°
2026-05-04 23:52 48.90045 -91.75938 33587 ft 412 kts 290°
2026-05-04 23:52 48.92179 -91.84013 33606 ft 411 kts 290°
2026-05-04 23:53 48.94311 -91.92082 33597 ft 411 kts 290°
2026-05-04 23:53 48.96426 -92.00139 33607 ft 410 kts 290°
2026-05-04 23:54 48.98526 -92.08156 33604 ft 410 kts 290°
2026-05-04 23:54 49.00627 -92.16218 33609 ft 410 kts 290°
2026-05-04 23:55 49.02724 -92.24276 33608 ft 409 kts 290°
2026-05-04 23:56 49.05851 -92.36370 33636 ft 408 kts 290°
2026-05-04 23:56 49.07522 -92.42849 33626 ft 409 kts 290°
2026-05-04 23:57 49.09286 -92.49705 33629 ft 409 kts 290°
2026-05-04 23:57 49.11357 -92.57798 33625 ft 409 kts 290°
2026-05-04 23:58 49.13420 -92.65889 33626 ft 410 kts 290°
2026-05-04 23:58 49.15466 -92.73947 33633 ft 410 kts 290°
2026-05-04 23:59 49.17522 -92.82060 33635 ft 410 kts 290°
2026-05-04 23:59 49.19574 -92.90193 33643 ft 410 kts 290°
2026-05-05 00:00 49.21622 -92.98319 33645 ft 410 kts 290°
2026-05-05 00:00 49.23657 -93.06457 33652 ft 409 kts 290°
2026-05-05 00:01 49.25676 -93.14536 33651 ft 409 kts 290°
2026-05-05 00:01 49.27714 -93.22683 33648 ft 410 kts 290°